Weather History for Alva, OK

Change the Weather History Date:

Monday, November 19, 2012

  Actual Average Record
Temperature  
Mean Temperature 55 °F -  
Max Temperature 69 °F 58 °F 82 °F (2007)
Min Temperature 41 °F 35 °F 20 °F (1951)
Degree Days  
Heating Degree Days 10    
Growing Degree Days 5 (Base 50)    
Moisture  
Dew Point 45 °F    
Average Humidity 73    
Maximum Humidity 93    
Minimum Humidity 46    
Precipitation  
Precipitation 0.00 in - - ()
Sea Level Pressure  
Sea Level Pressure 30.11 in    
Wind  
Wind Speed 7 mph (South)    
Max Wind Speed 14 mph    
Max Gust Speed -    
Visibility 9 miles    
Events      
Averages and records for this station are not official NWS values.
T = Trace of Precipitation, MM = Missing Value Source: NWS Daily Summary

Daily Weather History Graph

Daily Weather History Graph

Search for Another Location

Airport:

Trip Planner

Search our weather history database for the weather conditions in past years. The results will help you decide how hot, cold, wet, or windy it might be!

Date:

Astronomy

Nov. 19, 2012 Rise Set
Actual Time 7:17 AM CST 5:22 PM CST
Civil Twilight 6:49 AM CST 5:50 PM CST
Nautical Twilight 6:18 AM CST 6:22 PM CST
Astronomical Twilight 5:47 AM CST 6:52 PM CST
Moon 12:24 PM CST (11/19) 11:47 PM CST (11/19)
Length of Visible Light 11h 00m
Length of Day
10h 05m
Waxing Crescent, 41% of the Moon is Illuminated
Nov 19
Waxing Crescent
Nov 20
First Quarter
Nov 28
Full
Dec 6
Last Quarter
Dec 13
New

Hourly Weather History & Observations

Time (CST) Temp. Windchill Dew Point Humidity Pressure Visibility Wind Dir Wind Speed Gust Speed Precip Events Conditions
12:15 AM 50.0 °F - 42.8 °F 76% 30.06 in 10.0 mi South 10.4 mph - N/A   Clear
12:35 AM 50.0 °F - 42.8 °F 76% 30.05 in 10.0 mi South 13.8 mph - N/A   Clear
12:55 AM 50.0 °F - 42.8 °F 76% 30.05 in 10.0 mi South 13.8 mph - N/A   Clear
1:15 AM 50.0 °F - 42.8 °F 76% 30.05 in 10.0 mi South 11.5 mph - N/A   Clear
1:35 AM 48.2 °F - 42.8 °F 82% 30.05 in 10.0 mi South 11.5 mph - N/A   Clear
2:15 AM 48.2 °F - 41.0 °F 76% 30.06 in 10.0 mi South 9.2 mph - N/A   Clear
2:35 AM 46.4 °F 42.4 °F 41.0 °F 81% 30.06 in 10.0 mi South 8.1 mph - N/A   Clear
2:55 AM 46.4 °F 44.3 °F 41.0 °F 81% 30.06 in 10.0 mi SE 4.6 mph - N/A   Clear
3:15 AM 46.4 °F 41.1 °F 39.2 °F 76% 30.06 in 10.0 mi South 11.5 mph - N/A   Clear
3:35 AM 44.6 °F 39.7 °F 39.2 °F 81% 30.05 in 10.0 mi SSE 9.2 mph - N/A   Clear
3:55 AM 44.6 °F 42.2 °F 39.2 °F 81% 30.05 in 10.0 mi SE 4.6 mph - N/A   Clear
4:15 AM 44.6 °F 39.2 °F 39.2 °F 81% 30.05 in 10.0 mi SSE 10.4 mph - N/A   Clear
4:35 AM 44.6 °F 39.2 °F 39.2 °F 81% 30.05 in 10.0 mi SSE 10.4 mph - N/A   Clear
4:55 AM 44.6 °F 39.7 °F 39.2 °F 81% 30.06 in 10.0 mi SSE 9.2 mph - N/A   Clear
5:15 AM 42.8 °F 38.0 °F 39.2 °F 87% 30.06 in 10.0 mi SSE 8.1 mph - N/A   Clear
5:35 AM 41.0 °F 37.1 °F 39.2 °F 93% 30.06 in 10.0 mi SSE 5.8 mph - N/A   Clear
5:55 AM 42.8 °F 39.3 °F 39.2 °F 87% 30.06 in 10.0 mi SSE 5.8 mph - N/A   Clear
6:15 AM 41.0 °F 37.1 °F 39.2 °F 93% 30.08 in 10.0 mi SSE 5.8 mph - N/A   Clear
6:35 AM 42.8 °F 41.1 °F 39.2 °F 87% 30.08 in 10.0 mi South 3.5 mph - N/A   Clear
6:55 AM 42.8 °F 39.3 °F 39.2 °F 87% 30.10 in 10.0 mi South 5.8 mph - N/A   Clear
7:15 AM 41.0 °F 36.4 °F 37.4 °F 87% 30.11 in 9.0 mi South 6.9 mph - N/A   Clear
7:35 AM 41.0 °F 36.4 °F 39.2 °F 93% 30.11 in 8.0 mi South 6.9 mph - N/A   Clear
7:55 AM 44.6 °F 40.7 °F 41.0 °F 87% 30.11 in 9.0 mi SSW 6.9 mph - N/A   Clear
8:15 AM 46.4 °F - 42.8 °F 87% 30.11 in 9.0 mi Calm Calm - N/A   Clear
8:35 AM 50.0 °F - 46.4 °F 87% 30.12 in 9.0 mi Calm Calm - N/A   Clear
8:55 AM 50.0 °F - 46.4 °F 87% 30.14 in 8.0 mi WNW 3.5 mph - N/A   Clear
9:15 AM 53.6 °F - 46.4 °F 77% 30.13 in 9.0 mi WSW 3.5 mph - N/A   Clear
9:35 AM 55.4 °F - 48.2 °F 77% 30.13 in 9.0 mi WNW 4.6 mph - N/A   Clear
9:55 AM 57.2 °F - 48.2 °F 72% 30.12 in 10.0 mi West 5.8 mph - N/A   Clear
10:35 AM 59.0 °F - 48.2 °F 67% 30.13 in 9.0 mi NW 3.5 mph - N/A   Clear
10:55 AM 59.0 °F - 48.2 °F 67% 30.13 in 9.0 mi WNW 3.5 mph - N/A   Clear
11:15 AM 62.6 °F - 48.2 °F 59% 30.13 in 10.0 mi NNE 5.8 mph - N/A   Clear
11:35 AM 62.6 °F - 48.2 °F 59% 30.13 in 10.0 mi Calm Calm - N/A   Clear
11:55 AM 64.4 °F - 48.2 °F 56% 30.13 in 9.0 mi North 3.5 mph - N/A   Clear
12:15 PM 64.4 °F - 48.2 °F 56% 30.12 in 9.0 mi NE 5.8 mph - N/A   Clear
12:35 PM 66.2 °F - 48.2 °F 52% 30.12 in 9.0 mi NE 4.6 mph - N/A   Clear
12:55 PM 68.0 °F - 46.4 °F 46% 30.11 in 9.0 mi North 4.6 mph - N/A   Clear
1:15 PM 66.2 °F - 46.4 °F 49% 30.11 in 9.0 mi Calm Calm - N/A   Clear
1:35 PM 68.0 °F - 48.2 °F 49% 30.10 in 10.0 mi ESE 3.5 mph - N/A   Clear
1:55 PM 68.0 °F - 48.2 °F 49% 30.10 in 9.0 mi ENE 3.5 mph - N/A   Clear
2:15 PM 69.8 °F - 48.2 °F 46% 30.10 in 10.0 mi ENE 3.5 mph - N/A   Clear
2:35 PM 68.0 °F - 48.2 °F 49% 30.09 in 10.0 mi SE 5.8 mph - N/A   Clear
2:55 PM 68.0 °F - 48.2 °F 49% 30.09 in 9.0 mi NE 3.5 mph - N/A   Clear
3:15 PM 68.0 °F - 48.2 °F 49% 30.09 in 10.0 mi ESE 3.5 mph - N/A   Clear
3:35 PM 68.0 °F - 48.2 °F 49% 30.09 in 10.0 mi SE 3.5 mph - N/A   Clear
3:55 PM 68.0 °F - 48.2 °F 49% 30.10 in 10.0 mi Calm Calm - N/A   Clear
4:15 PM 68.0 °F - 48.2 °F 49% 30.10 in 10.0 mi SSE 3.5 mph - N/A   Clear
4:35 PM 66.2 °F - 48.2 °F 52% 30.10 in 9.0 mi SSE 3.5 mph - N/A   Clear
4:55 PM 66.2 °F - 48.2 °F 52% 30.11 in 9.0 mi Calm Calm - N/A   Clear
5:15 PM 62.6 °F - 48.2 °F 59% 30.11 in 7.0 mi SE 3.5 mph - N/A   Clear
5:35 PM 62.6 °F - 50.0 °F 63% 30.12 in 5.0 mi Calm Calm - N/A   Haze
5:55 PM 59.0 °F - 48.2 °F 67% 30.12 in 10.0 mi SE 3.5 mph - N/A   Clear
6:15 PM 59.0 °F - 48.2 °F 67% 30.13 in 8.0 mi SE 3.5 mph - N/A   Clear
6:35 PM 57.2 °F - 48.2 °F 72% 30.14 in 10.0 mi SE 3.5 mph - N/A   Clear
6:55 PM 57.2 °F - 48.2 °F 72% 30.14 in 10.0 mi SE 5.8 mph - N/A   Clear
7:15 PM 55.4 °F - 48.2 °F 77% 30.15 in 10.0 mi SSE 4.6 mph - N/A   Clear
7:35 PM 55.4 °F - 48.2 °F 77% 30.15 in 10.0 mi SSE 3.5 mph - N/A   Clear
7:55 PM 53.6 °F - 48.2 °F 82% 30.15 in 10.0 mi South 4.6 mph - N/A   Clear
8:15 PM 48.2 °F - 44.6 °F 87% 30.15 in 7.0 mi WSW 6.9 mph - N/A   Clear
8:35 PM 48.2 °F - 44.6 °F 87% 30.16 in 7.0 mi West 3.5 mph - N/A   Clear
8:55 PM 51.8 °F - 46.4 °F 82% 30.16 in 9.0 mi West 3.5 mph - N/A   Clear
9:15 PM 51.8 °F - 46.4 °F 82% 30.16 in 10.0 mi SW 3.5 mph - N/A   Clear
9:35 PM 50.0 °F - 44.6 °F 82% 30.16 in 9.0 mi WSW 4.6 mph - N/A   Clear
9:55 PM 46.4 °F 45.2 °F 42.8 °F 87% 30.16 in 10.0 mi WSW 3.5 mph - N/A   Clear
10:15 PM 48.2 °F - 44.6 °F 87% 30.16 in 10.0 mi Calm Calm - N/A   Clear
10:35 PM 50.0 °F - 46.4 °F 87% 30.16 in 10.0 mi WNW 4.6 mph - N/A   Clear
10:55 PM 50.0 °F - 46.4 °F 87% 30.16 in 10.0 mi NNW 5.8 mph - N/A   Clear
11:15 PM 46.4 °F 43.5 °F 42.8 °F 87% 30.16 in 9.0 mi NW 5.8 mph - N/A   Clear
11:35 PM 44.6 °F 43.1 °F 41.0 °F 87% 30.16 in 10.0 mi NW 3.5 mph - N/A   Clear
11:55 PM 41.0 °F 35.2 °F 37.4 °F 87% 30.16 in 7.0 mi NNW 9.2 mph - N/A   Clear